Regional Weather Roundup
Issued by NWS

Home | Current Version | Previous Version | Graphics & Text | Print | Product List | Glossary On
Versions: 1 2 3 4 5 6 7 8 9 10 11 12 13 14 15 16 17 18 19 20 21 22 23 24 25 26 27 28 29 30 31 32 33 34 35 36 37 38 39 40 41 42 43 44 45 46 47 48 49 50
000
ASUS43 KOAX 291410
RWRNE

WEATHER ROUNDUP FOR NEBRASKA
NATIONAL WEATHER SERVICE OMAHA NE
900 AM CDT FRI JUL 29 2016

NOTES: SATELLITE DATA IS BEING USED TO AUGMENT CLOUD COVER ABOVE
       12000 FEET.
       "FAIR" INDICATES FEW OR NO CLOUDS BELOW 12,000 FEET WITH NO
       SIGNIFICANT WEATHER AND/OR OBSTRUCTIONS TO VISIBILITY.

  * THESE STATIONS DO NOT REPORT WEATHER SUCH AS RAIN...SNOW OR FOG.

NEZ001>004-019>022-054>056-291500-
NEBRASKA PANHANDLE

CITY           SKY/WX    TMP DP  RH WIND       PRES   REMARKS
SCOTTSBLUFF    SUNNY     63  59  87 S5        30.16R
ALLIANCE       FOG       59  59 100 CALM      30.15S VSB 1/4
CHADRON        SUNNY     63  58  83 CALM      30.14R
KIMBALL        SUNNY     64  59  84 W3        30.20R
SIDNEY         SUNNY     65  60  84 NW3       30.18R
$$

NEZ057>060-069>072-079>082-291500-
SOUTHWEST NEBRASKA

CITY           SKY/WX    TMP DP  RH WIND       PRES   REMARKS
NORTH PLATTE   CLOUDY    63  61  93 CALM      30.14R FOG
IMPERIAL       SUNNY     66  62  87 NE6       30.15R
LEXINGTON      PTSUNNY   65  63  92 CALM      30.13S
MCCOOK         MOSUNNY   67  63  87 E6        30.13R
OGALLALA       SUNNY     66  63  89 CALM      30.14S
$$

NEZ005>010-023>029-035>040-094-291500-
NORTH CENTRAL NEBRASKA

CITY           SKY/WX    TMP DP  RH WIND       PRES   REMARKS
AINSWORTH      CLOUDY    63  63 100 E3        30.13S
BROKEN BOW     CLOUDY    64  63  96 N3        30.13R
O`NEILL        CLOUDY    66  63  90 NE6       30.12R
ORD            CLOUDY    66  63  90 W3        30.10R
THEDFORD       CLOUDY    63  62  98 E3        30.15S
$$

NEZ041-046>049-061>064-073>077-083>087-291500-
SOUTH CENTRAL NEBRASKA

CITY           SKY/WX    TMP DP  RH WIND       PRES   REMARKS
GRAND ISLAND   CLOUDY    68  63  84 NE3       30.11R
AURORA         CLOUDY    69  67  94 NE3       30.10S
HASTINGS       PTSUNNY   70  65  84 NE5       30.11S
HEBRON         CLOUDY    71  63  76 N7        30.08S
HOLDREGE       CLOUDY    65  63  92 NE5       30.13R
KEARNEY *      PTSUNNY   66  10  11 N3        30.12S
YORK           CLOUDY    68  66  94 NE6       30.10S
$$

NEZ011>018-030>034-042>045-291500-
NORTHEAST NEBRASKA

CITY           SKY/WX    TMP DP  RH WIND       PRES   REMARKS
NORFOLK        PTSUNNY   68  61  78 N3        30.09R
ALBION         CLOUDY    66  61  83 NE8       30.10S
BLAIR          CLOUDY    67  64  87 CALM      30.09R
FREMONT        CLOUDY    67  64  88 E3        30.09R
TEKAMAH        SUNNY     68  63  84 N5        30.08R
WAYNE          PTSUNNY   66  63  89 NE5       30.11R
$$

NEZ050>053-065>068-078-088>093-291500-
SOUTHEAST NEBRASKA

CITY           SKY/WX    TMP DP  RH WIND       PRES   REMARKS
LINCOLN        LGT RAIN  69  66  90 E3        30.09S FOG
OMAHA EPPLEY   CLOUDY    69  60  73 SE3       30.09R
BEATRICE       CLOUDY    69  64  83 NE3       30.07S
FALLS CITY     CLOUDY    71  66  84 NE6       30.04R
NEBRASKA CITY  CLOUDY    68  68 100 N6        30.07S
PLATTSMOUTH    CLOUDY    67  65  93 N3        30.08S
$$

NEZ044-045-051>053-067-291500-
OMAHA AREA

CITY           SKY/WX    TMP DP  RH WIND       PRES   REMARKS
OMAHA EPPLEY   CLOUDY    69  60  73 SE3       30.09R
BLAIR          CLOUDY    67  64  87 CALM      30.09R
FREMONT        CLOUDY    67  64  88 E3        30.09R
MILLARD        CLOUDY    69  63  81 SE3       30.09R
OFFUTT AFB     CLOUDY    69  63  83 SE3       30.08R
PLATTSMOUTH    CLOUDY    67  65  93 N3        30.08S
WAHOO          CLOUDY    68  65  90 CALM      30.09R
$$




USA.gov is the U.S. government's official web portal to all federal, state and local government web resources and services.